Regional Weather Roundup
Issued by NWS

Home | Current Version | Previous Version | Graphics & Text | Print | Product List | Glossary On
Versions: 1 2 3 4 5 6 7 8 9 10 11 12 13 14 15 16 17 18 19 20 21 22 23 24 25 26 27 28 29 30 31 32 33 34 35 36 37 38 39 40 41 42 43 44 45 46 47 48 49 50
334
ASUS43 KLMK 221510
RWRKY
KENTUCKY REGIONAL WEATHER ROUNDUP
NATIONAL WEATHER SERVICE LOUISVILLE KY
1000 AM EST WED FEB 22 2017

NOTE "FAIR" INDICATES FEW OR NO CLOUDS BELOW 12,000 FEET
WITH NO SIGNIFICANT WEATHER AND/OR OBSTRUCTIONS TO VISIBILITY.

KYZ001>023-026-027-061>063-070>075-221600-
WESTERN AND SOUTH CENTRAL KENTUCKY

CITY           SKY/WX    TMP DP  RH WIND       PRES   REMARKS
PADUCAH        CLOUDY    60  57  89 CALM      29.90S FOG
HENDERSON      MOSUNNY   61  55  82 SW3       29.91S
OWENSBORO      CLOUDY    60  57  89 S3        29.92S
HOPKINSVILLE   PTSUNNY   58  58 100 CALM      29.91S
BOWLING GREEN  CLOUDY    60  57  89 E3        29.93S
GLASGOW        CLOUDY    58  58 100 E3        29.94R
$$

KYZ024-025-028>034-038-045-046-053-221600-
NORTH CENTRAL KENTUCKY

CITY           SKY/WX    TMP DP  RH WIND       PRES   REMARKS
LOUISVILLE/SDF CLOUDY    62  54  74 S5        29.92S
LOUISVILLE/LOU PTSUNNY   61  54  77 S6        29.93F
FORT KNOX      CLOUDY    58  58  99 SE5       29.91F FOG
$$

KYZ035>037-039>044-047>052-055>060-089>105-221600-
NORTHEAST KENTUCKY

CITY           SKY/WX    TMP DP  RH WIND       PRES   REMARKS
LEXINGTON      CLOUDY    57  54  89 S6        29.95S
COVINGTON      LGT RAIN  56  56 100 S8        29.92F FOG
FRANKFORT      CLOUDY    58  53  84 S7        29.93F
$$

KYZ054-064>069-076>088-106>120-221600-
SOUTHEAST KENTUCKY

CITY           SKY/WX    TMP DP  RH WIND       PRES   REMARKS
JACKSON        LGT RAIN  53  51  93 CALM      29.97S FOG
LONDON         CLOUDY    55  52  89 SE3       29.97S
SOMERSET       CLOUDY    54  54 100 CALM      29.98R
MIDDLESBORO    RAIN      54  53  97 CALM      29.98S
MONTICELLO     CLOUDY    56  55  97 NW7       29.98R
$$





USA.gov is the U.S. government's official web portal to all federal, state and local government web resources and services.